Location: Hains Lake
(37.8540°N, 99.8578°W)
Time: 04:53:06
(UTC+00:00)

Vanguard 2 Rocket - Pass Details

Date: 26 April 2021
Orbit: 553 x 3326 km, 32.9° (Epoch: 07 May)

Event Time Altitude Azimuth Distance (km) Brightness Sun altitude
Rises 00:47:05 0° 284° (WNW) 7,273 14.4 6.4°
Reaches altitude 10° 00:52:30 10° 277° (W) 6,288 13.9 5.3°
Maximum altitude 01:09:41 38° 219° (SW) 3,931 10.4 2.0°
Drops below altitude 10° 01:22:42 10° 158° (SSE) 4,773 10.2 -0.4°
Sets 01:26:11 0° 150° (SSE) 5,423 10.4 -1.1°
